TimeMST,TemperatureF,Dew PointF,Humidity,Sea Level PressureIn,VisibilityMPH,Wind Direction,Wind SpeedMPH,Gust SpeedMPH,PrecipitationIn,Events,Conditions,WindDirDegrees,DateUTC
12:35 AM,25.3,10.6,54,30.29,10.0,NNW,4.6,-,N/A,,Clear,340,2013-03-03 07:35:00
12:55 AM,23.9,10.6,57,30.28,10.0,NNW,4.6,-,N/A,,Clear,330,2013-03-03 07:55:00
1:15 AM,21.9,9.3,58,30.27,10.0,NW,8.1,-,N/A,,Clear,310,2013-03-03 08:15:00
1:35 AM,24.8,9.9,53,30.27,10.0,NW,4.6,9.2,N/A,,Clear,320,2013-03-03 08:35:00
1:55 AM,24.8,10.0,54,30.26,10.0,NW,9.2,-,N/A,,Clear,310,2013-03-03 08:55:00
2:15 AM,23.5,9.7,56,30.26,10.0,NW,6.9,-,N/A,,Clear,320,2013-03-03 09:15:00
2:35 AM,23.0,9.1,55,30.25,10.0,WNW,8.1,-,N/A,,Clear,300,2013-03-03 09:35:00
2:55 AM,21.9,9.7,59,30.23,10.0,WNW,4.6,-,N/A,,Clear,290,2013-03-03 09:55:00
3:15 AM,22.1,9.5,58,30.22,10.0,NW,4.6,-,N/A,,Clear,320,2013-03-03 10:15:00
3:35 AM,23.5,10.6,58,30.22,10.0,North,3.5,-,N/A,,Clear,10,2013-03-03 10:35:00
3:55 AM,22.3,9.7,58,30.21,10.0,Calm,Calm,-,N/A,,Clear,0,2013-03-03 10:55:00
4:15 AM,21.4,8.6,58,30.21,10.0,WNW,5.8,-,N/A,,Clear,300,2013-03-03 11:15:00
4:55 AM,18.0,8.4,66,30.20,10.0,NW,3.5,-,N/A,,Clear,320,2013-03-03 11:55:00
5:15 AM,17.6,7.9,66,30.20,10.0,Calm,Calm,-,N/A,,Clear,0,2013-03-03 12:15:00
5:35 AM,17.8,7.5,64,30.18,10.0,Calm,Calm,-,N/A,,Clear,0,2013-03-03 12:35:00
5:55 AM,19.2,7.7,61,30.19,10.0,NW,6.9,-,N/A,,Clear,320,2013-03-03 12:55:00
6:15 AM,19.8,8.4,61,30.18,10.0,WNW,4.6,-,N/A,,Clear,300,2013-03-03 13:15:00
6:35 AM,18.3,8.1,64,30.18,10.0,North,3.5,-,N/A,,Clear,10,2013-03-03 13:35:00
6:55 AM,17.6,7.0,63,30.18,10.0,WNW,4.6,-,N/A,,Clear,290,2013-03-03 13:55:00
7:15 AM,21.2,9.3,60,30.18,10.0,WNW,3.5,-,N/A,,Clear,290,2013-03-03 14:15:00
7:35 AM,24.8,11.7,57,30.17,10.0,NW,4.6,-,N/A,,Clear,310,2013-03-03 14:35:00
7:55 AM,27.0,13.1,56,30.17,10.0,NNW,3.5,-,N/A,,Clear,330,2013-03-03 14:55:00
8:15 AM,29.5,12.7,50,30.16,10.0,NW,4.6,-,N/A,,Clear,320,2013-03-03 15:15:00
8:35 AM,32.0,14.2,48,30.16,10.0,NW,5.8,-,N/A,,Clear,320,2013-03-03 15:35:00
8:55 AM,35.4,14.5,42,30.15,10.0,NNW,4.6,-,N/A,,Clear,340,2013-03-03 15:55:00
9:15 AM,38.5,14.0,37,30.15,10.0,Calm,Calm,-,N/A,,Clear,0,2013-03-03 16:15:00
9:35 AM,42.6,13.8,31,30.15,10.0,Calm,Calm,-,N/A,,Clear,0,2013-03-03 16:35:00
9:55 AM,48.6,14.2,25,30.14,10.0,NW,3.5,-,N/A,,Clear,320,2013-03-03 16:55:00
10:15 AM,55.6,13.8,19,30.12,10.0,Calm,Calm,-,N/A,,Clear,0,2013-03-03 17:15:00
10:35 AM,61.7,5.0,10,30.12,10.0,West,12.7,18.4,N/A,,Clear,280,2013-03-03 17:35:00
10:55 AM,60.6,5.2,11,30.11,10.0,West,11.5,19.6,N/A,,Clear,280,2013-03-03 17:55:00
11:15 AM,58.3,4.1,11,30.10,10.0,WNW,6.9,-,N/A,,Clear,290,2013-03-03 18:15:00
11:35 AM,60.3,3.2,10,30.10,10.0,West,17.3,25.3,N/A,,Clear,270,2013-03-03 18:35:00
11:55 AM,59.9,3.4,10,30.10,10.0,West,18.4,23.0,N/A,,Clear,270,2013-03-03 18:55:00
12:15 PM,59.4,2.5,10,30.09,10.0,West,15.0,25.3,N/A,,Clear,280,2013-03-03 19:15:00
12:35 PM,58.6,7.9,13,30.07,10.0,WNW,13.8,18.4,N/A,,Scattered Clouds,300,2013-03-03 19:35:00
12:55 PM,59.2,9.5,14,30.07,10.0,West,5.8,-,N/A,,Scattered Clouds,270,2013-03-03 19:55:00
1:15 PM,62.2,3.2,10,30.06,10.0,West,16.1,23.0,N/A,,Mostly Cloudy,260,2013-03-03 20:15:00
1:35 PM,61.2,-0.8,8,30.05,10.0,West,13.8,29.9,N/A,,Overcast,270,2013-03-03 20:35:00
1:55 PM,62.2,3.7,10,30.02,10.0,West,11.5,24.2,N/A,,Overcast,270,2013-03-03 20:55:00
2:35 PM,64.6,5.7,10,30.02,10.0,WNW,15.0,31.1,N/A,,Overcast,290,2013-03-03 21:35:00
2:55 PM,63.0,4.8,10,30.02,10.0,West,21.9,29.9,N/A,,Scattered Clouds,270,2013-03-03 21:55:00
3:15 PM,64.0,7.2,11,30.02,10.0,West,19.6,27.6,N/A,,Mostly Cloudy,270,2013-03-03 22:15:00
3:35 PM,64.0,7.0,11,30.01,10.0,West,18.4,29.9,N/A,,Overcast,260,2013-03-03 22:35:00
3:55 PM,61.0,7.3,12,30.01,10.0,WNW,18.4,26.5,N/A,,Overcast,300,2013-03-03 22:55:00
4:15 PM,59.0,9.7,14,30.01,10.0,West,10.4,26.5,N/A,,Overcast,260,2013-03-03 23:15:00
4:35 PM,58.1,13.5,17,30.00,10.0,West,16.1,27.6,N/A,,Mostly Cloudy,260,2013-03-03 23:35:00
4:55 PM,57.9,21.0,24,29.99,10.0,West,26.5,33.4,N/A,,Scattered Clouds,270,2013-03-03 23:55:00
5:15 PM,57.0,23.0,27,29.98,10.0,West,21.9,33.4,N/A,,Mostly Cloudy,260,2013-03-04 00:15:00
5:35 PM,56.3,22.6,27,29.98,10.0,West,18.4,26.5,N/A,,Scattered Clouds,260,2013-03-04 00:35:00
5:55 PM,56.3,23.0,28,29.98,10.0,West,12.7,21.9,N/A,,Clear,260,2013-03-04 00:55:00
6:15 PM,55.8,23.2,28,29.98,10.0,West,13.8,24.2,N/A,,Clear,280,2013-03-04 01:15:00
6:35 PM,54.5,23.4,30,29.99,10.0,West,12.7,-,N/A,,Clear,270,2013-03-04 01:35:00
6:55 PM,54.5,20.1,26,29.98,10.0,West,9.2,23.0,N/A,,Clear,260,2013-03-04 01:55:00
7:15 PM,54.5,20.3,26,29.98,10.0,West,18.4,31.1,N/A,,Scattered Clouds,260,2013-03-04 02:15:00
7:35 PM,53.8,18.1,25,29.98,10.0,WSW,15.0,28.8,N/A,,Scattered Clouds,250,2013-03-04 02:35:00
7:55 PM,53.1,19.0,26,29.98,10.0,West,18.4,26.5,N/A,,Clear,270,2013-03-04 02:55:00
8:15 PM,53.1,18.9,26,29.98,10.0,West,23.0,29.9,N/A,,Clear,260,2013-03-04 03:15:00
8:35 PM,52.3,18.7,27,29.98,10.0,West,23.0,33.4,N/A,,Clear,270,2013-03-04 03:35:00
8:55 PM,52.2,21.6,30,29.98,10.0,West,24.2,36.8,N/A,,Clear,260,2013-03-04 03:55:00
9:15 PM,51.1,26.2,38,29.98,10.0,West,21.9,35.7,N/A,,Clear,260,2013-03-04 04:15:00
9:35 PM,51.3,22.1,32,29.98,10.0,West,21.9,33.4,N/A,,Clear,260,2013-03-04 04:35:00
9:55 PM,50.5,21.0,31,29.98,10.0,West,16.1,29.9,N/A,,Clear,260,2013-03-04 04:55:00
10:15 PM,50.4,21.2,32,29.98,10.0,West,20.7,31.1,N/A,,Clear,260,2013-03-04 05:15:00
10:35 PM,50.0,21.2,32,29.98,10.0,West,17.3,28.8,N/A,,Clear,260,2013-03-04 05:35:00
10:55 PM,49.8,21.2,32,29.98,10.0,West,17.3,32.2,N/A,,Clear,270,2013-03-04 05:55:00
11:15 PM,49.3,21.2,33,29.97,10.0,West,18.4,28.8,N/A,,Clear,270,2013-03-04 06:15:00
11:35 PM,49.1,20.8,33,29.97,10.0,West,19.6,28.8,N/A,,Clear,260,2013-03-04 06:35:00
11:55 PM,49.3,19.4,31,29.97,10.0,West,18.4,26.5,N/A,,Clear,260,2013-03-04 06:55:00